| time (UTC) | temp F | wind direction | speed MPH | gust MPH | rain 1hr in | rain 24hr in | rain mn in | humidity % | barometer mb |
| 20260502163102 | 53 | 164 | 2.0 | 6.0 | 0.07 | 0.09 | 0.09 | 93 | 1012.6 |
| 20260502161551 | 53 | 164 | 3.0 | 5.0 | 0.07 | 0.07 | 0.07 | 92 | 1012.7 |
| 20260502151543 | 54 | 0 | 0.0 | 1.0 | 0.00 | 0.00 | 0.00 | 88 | 1013.2 |
| 20260502123050 | 57 | 118 | 2.0 | 8.0 | 0.00 | 0.00 | 0.00 | 83 | 1014.6 |
| 20260502121546 | 57 | 117 | 5.0 | 9.0 | 0.00 | 0.00 | 0.00 | 83 | 1015.0 |
| 20260502114545 | 57 | 94 | 3.0 | 10.0 | 0.00 | 0.00 | 0.00 | 84 | 1015.3 |
| 20260502113048 | 55 | 143 | 6.0 | 12.0 | 0.00 | 0.00 | 0.00 | 87 | 1015.6 |
| 20260502111548 | 56 | 140 | 9.0 | 13.0 | 0.00 | 0.00 | 0.00 | 88 | 1015.7 |
| 20260502110044 | 55 | 132 | 8.0 | 12.0 | 0.00 | 0.00 | 0.00 | 89 | 1016.1 |
| 20260502104542 | 57 | 130 | 10.0 | 13.0 | 0.00 | 0.00 | 0.00 | 84 | 1016.3 |
| 20260502103039 | 55 | 137 | 7.0 | 13.0 | 0.00 | 0.00 | 0.00 | 89 | 1016.5 |
| 20260502101538 | 55 | 134 | 7.0 | 13.0 | 0.00 | 0.00 | 0.00 | 88 | 1016.3 |
| 20260502070052 | 51 | 127 | 5.0 | 11.0 | 0.00 | 0.00 | 0.00 | 97 | 1017.0 |
| 20260502064549 | 51 | 136 | 7.0 | 9.0 | 0.00 | 0.00 | 0.00 | 97 | 1017.1 |
| 20260502063044 | 51 | 143 | 5.0 | 8.0 | 0.00 | 0.00 | 0.00 | 97 | 1017.2 |
| 20260502061538 | 51 | 135 | 5.0 | 8.0 | 0.00 | 0.00 | 0.00 | 97 | 1017.2 |
| 20260502060038 | 51 | 154 | 3.0 | 7.0 | 0.00 | 0.00 | 0.00 | 97 | 1017.4 |
| 20260502054539 | 51 | 152 | 2.0 | 8.0 | 0.00 | 0.00 | 0.00 | 97 | 1017.5 |
| 20260502053037 | 51 | 158 | 6.0 | 11.0 | 0.00 | 0.00 | 0.00 | 97 | 1017.5 |
| 20260502051544 | 50 | 96 | 2.0 | 6.0 | 0.00 | 0.00 | 0.00 | 97 | 1017.5 |
| 20260502050043 | 50 | 82 | 1.0 | 4.0 | 0.00 | 0.00 | 0.00 | 97 | 1017.4 |
| 20260502044547 | 50 | 80 | 1.0 | 4.0 | 0.00 | 0.00 | 0.00 | 97 | 1017.4 |
| 20260502043044 | 50 | 180 | 1.0 | 4.0 | 0.00 | 0.00 | 0.00 | 97 | 1017.4 |
| 20260502041545 | 50 | 180 | 1.0 | 4.0 | 0.00 | 0.00 | 0.00 | 97 | 1017.4 |
| 20260502040037 | 50 | 180 | 0.0 | 2.0 | 0.00 | 0.00 | 0.00 | 97 | 1017.4 |
| 20260502034544 | 49 | 180 | 0.0 | 2.0 | 0.00 | 0.00 | 0.00 | 97 | 1017.6 |
| 20260502033045 | 50 | 0 | 0.0 | 2.0 | 0.00 | 0.00 | 0.00 | 97 | 1017.7 |
| 20260502031542 | 50 | 0 | 0.0 | 1.0 | 0.00 | 0.00 | 0.00 | 97 | 1017.9 |
| 20260502030041 | 50 | 0 | 1.0 | 4.0 | 0.00 | 0.00 | 0.00 | 97 | 1018.1 |
| 20260502024542 | 50 | 180 | 2.0 | 4.0 | 0.00 | 0.00 | 0.00 | 97 | 1018.2 |
| 20260502023041 | 50 | 180 | 1.0 | 4.0 | 0.00 | 0.00 | 0.00 | 96 | 1018.3 |
| 20260502021540 | 50 | 180 | 0.0 | 2.0 | 0.00 | 0.00 | 0.00 | 96 | 1018.4 |
| 20260502020043 | 50 | 0 | 1.0 | 3.0 | 0.00 | 0.00 | 0.00 | 96 | 1018.5 |
| 20260502014551 | 50 | 180 | 1.0 | 2.0 | 0.00 | 0.00 | 0.00 | 96 | 1018.8 |
| 20260502013044 | 50 | 0 | 0.0 | 2.0 | 0.00 | 0.00 | 0.00 | 97 | 1019.0 |
| 20260502011545 | 50 | 180 | 3.0 | 5.0 | 0.00 | 0.00 | 0.00 | 97 | 1019.1 |
| 20260502010042 | 50 | 294 | 0.0 | 3.0 | 0.00 | 0.00 | 0.00 | 96 | 1019.1 |
| 20260502004539 | 49 | 294 | 0.0 | 2.0 | 0.00 | 0.00 | 0.00 | 96 | 1019.2 |
| 20260502003038 | 49 | 0 | 0.0 | 2.0 | 0.00 | 0.00 | 0.00 | 96 | 1019.3 |
| 20260502001537 | 50 | 294 | 0.0 | 2.0 | 0.00 | 0.00 | 0.00 | 96 | 1019.2 |
| 20260502000054 | 49 | 294 | 1.0 | 2.0 | 0.00 | 0.00 | 0.00 | 96 | 1019.4 |
| 20260501234543 | 48 | 0 | 1.0 | 2.0 | 0.00 | 0.00 | 0.00 | 96 | 1019.6 |
| 20260501233041 | 47 | 294 | 1.0 | 3.0 | 0.00 | 0.00 | 0.00 | 95 | 1019.6 |
| 20260501231547 | 49 | 279 | 2.0 | 3.0 | 0.00 | 0.00 | 0.00 | 94 | 1019.7 |
| 20260501230045 | 50 | 0 | 0.0 | 2.0 | 0.00 | 0.00 | 0.00 | 95 | 1019.8 |
| 20260501224537 | 50 | 248 | 0.0 | 2.0 | 0.00 | 0.00 | 0.00 | 95 | 1019.9 |
| 20260501223044 | 50 | 0 | 0.0 | 2.0 | 0.00 | 0.00 | 0.00 | 95 | 1019.9 |
| 20260501221543 | 50 | 248 | 1.0 | 3.0 | 0.00 | 0.00 | 0.00 | 95 | 1020.1 |
| 20260501220041 | 50 | 248 | 1.0 | 3.0 | 0.00 | 0.00 | 0.00 | 95 | 1020.1 |
| 20260501214542 | 50 | 248 | 1.0 | 3.0 | 0.00 | 0.00 | 0.00 | 95 | 1020.1 |
| 20260501213038 | 50 | 248 | 1.0 | 3.0 | 0.00 | 0.00 | 0.00 | 95 | 1020.2 |
| 20260501211544 | 50 | 248 | 1.0 | 3.0 | 0.00 | 0.00 | 0.00 | 95 | 1020.2 |
| 20260501210044 | 50 | 0 | 1.0 | 3.0 | 0.00 | 0.00 | 0.00 | 94 | 1020.1 |
| 20260501204543 | 51 | 248 | 0.0 | 1.0 | 0.00 | 0.00 | 0.00 | 94 | 1020.0 |
| 20260501203038 | 51 | 0 | 0.0 | 2.0 | 0.00 | 0.00 | 0.00 | 94 | 1019.9 |
| 20260501201551 | 51 | 248 | 0.0 | 3.0 | 0.00 | 0.00 | 0.00 | 93 | 1019.9 |
| 20260501200037 | 51 | 248 | 2.0 | 4.0 | 0.00 | 0.00 | 0.00 | 93 | 1019.9 |
| 20260501194543 | 51 | 248 | 2.0 | 3.0 | 0.00 | 0.00 | 0.00 | 93 | 1019.8 |
| 20260501193037 | 51 | 248 | 0.0 | 1.0 | 0.00 | 0.00 | 0.00 | 92 | 1019.7 |
| 20260501191543 | 52 | 248 | 0.0 | 3.0 | 0.00 | 0.00 | 0.00 | 92 | 1019.6 |
| 20260501190038 | 52 | 248 | 2.0 | 4.0 | 0.00 | 0.00 | 0.00 | 91 | 1019.5 |
| 20260501184538 | 53 | 248 | 1.0 | 4.0 | 0.00 | 0.00 | 0.00 | 90 | 1019.6 |
| 20260501183047 | 53 | 248 | 1.0 | 4.0 | 0.00 | 0.00 | 0.00 | 88 | 1019.6 |
| 20260501181540 | 54 | 248 | 1.0 | 4.0 | 0.00 | 0.00 | 0.00 | 87 | 1019.6 |
| 20260501180048 | 55 | 248 | 2.0 | 7.0 | 0.00 | 0.00 | 0.00 | 85 | 1019.7 |
| 20260501174544 | 55 | 250 | 3.0 | 7.0 | 0.00 | 0.00 | 0.00 | 84 | 1019.7 |
| 20260501173043 | 55 | 263 | 1.0 | 6.0 | 0.00 | 0.00 | 0.00 | 85 | 1019.6 |